Regional Weather Roundup
Issued by NWS Mt. Holly, NJ

Home | Current Version | Previous Version | Text Only | Print | Product List | Glossary On
Versions: 1 2 3 4 5 6 7 8 9 10 11 12 13 14 15 16 17 18 19 20 21 22 23 24 25 26 27 28 29 30 31 32 33 34 35 36 37 38 39 40 41 42 43 44 45 46 47 48 49 50
000
ASUS41 KPHI 270110
RWRPHI

REGIONAL WEATHER ROUNDUP
NATIONAL WEATHER SERVICE MOUNT HOLLY NJ
800 PM EST MON JAN 26 2015

NOTE:  "FAIR" INDICATES FEW OR NO CLOUDS BELOW 12,000 FEET WITH NO
SIGNIFICANT WEATHER AND/OR OBSTRUCTIONS TO VISIBILITY.

 * = STATION DOES NOT REPORT PRECIPITATION (E.G. RAIN, SNOW, ETC.)
        OR FOG.

NJZ015>026-270200-
SOUTHERN NEW JERSEY

CITY           SKY/WX    TMP DP  RH WIND       PRES   REMARKS
POMONA         CLOUDY    32  30  92 N20G25    29.65F FOG     WCI  20
RIO GRANDE*    CLOUDY    36  28  75 N18G25    29.61S WCI  25
MILLVILLE      CLOUDY    30  25  81 N20G26    29.68S WCI  17
WRIGHTSTOWN    CLOUDY    28  24  85 N22G30    29.71F WCI  15
MOUNT HOLLY    LGT SNOW  27  23  85 N16       29.75S FOG     WCI  15
TRENTON        MIX PCPN  26  21  81 NE17G29   29.76S WCI  13

$$
NJZ001>014-270200-
NORTHERN NEW JERSEY

CITY           SKY/WX    TMP DP  RH WIND       PRES   REMARKS
SUSSEX         CLOUDY    20  14  77 NE10      29.85F WCI   9
ANDOVER*         N/A     18  14  84 VRB7      29.84F WCI   9
MORRISTOWN     LGT SNOW  25  21  86 NE16      29.83  WCI  12
NEWARK         FLURRIES  26  22  84 N16       29.81F WCI  14
TETERBORO      LGTSLEET  26  19  74 N14G22    29.82F WCI  14
CALDWELL       CLOUDY    26  19  74 NE15G25   29.83F WCI  14
SOMERVILLE     CLOUDY    27  20  75 N12G20    29.80F WCI  17
ALLAIRE*       CLOUDY    28  21  74 NE18G30   29.73F WCI  16
TOMS RIVER*    CLOUDY    28  25  86 NE21G30   29.72F WCI  15

$$
PAZ043-044-047-054-055-060>062-066>071-270200-
EASTERN PENNSYLVANIA

CITY           SKY/WX    TMP DP  RH WIND       PRES   REMARKS
PHILADELPHIA   FLURRIES  28  22  78 NE25      29.76S WCI  13
NORTH PHILA    LGT SNOW  28  20  71 NE17G25   29.78S WCI  16
BLUE BELL      CLOUDY    28  23  80 NE10G21   29.75F WCI  19
DOYLESTOWN     LGT SNOW  23  22  96 NE15G23   29.77S VSB 3/4 WCI  10
POTTSTOWN      CLOUDY    23  18  81 NE8       29.79F WCI  14
LANCASTER      LGT SNOW  22  17  81 NE13      29.77S WCI  10
COATESVILLE    LGT SNOW  25  23  93 NE14G20   29.73F WCI  13
READING        CLOUDY    23  16  74 NE13      29.79F WCI  11
ALLENTOWN      CLOUDY    23  16  74 NE18G29   29.81F WCI   9
MOUNT POCONO   LGT SNOW  20  15  81 E22G30    29.74F WCI   3
HAZLETON       LGT SNOW  23  19  86 E8        29.76F WCI  14
WILKES BARRE   CLOUDY    22  15  75 NE8G16    29.80F WCI  12

$$
DEZALL-MDZ008-012-015-019-020-270200-
DELAWARE AND EASTERN MARYLAND

CITY           SKY/WX    TMP DP  RH WIND       PRES   REMARKS
WILMINGTON     CLOUDY    29  22  75 NE16G26   29.74S WCI  17
DOVER          CLOUDY    30  29  99 N18       29.68S WCI  17
GEORGETOWN     CLOUDY    32  29  88 N15G24    29.64S WCI  22
EASTON         LGTSLEET  32  30  93 N13G18    29.72S WCI  22
PATUXENT       FRZ RAIN  32  28  85 N15       29.68S WCI  22
OCEAN CITY     CLOUDY    38  36  92 N18G31    29.58S WCI  28
WALLOPS ISLAND LGT RAIN  37  36  96 N15G26    29.58R WCI  28
CAMBRIDGE      CLOUDY    34  32  93 CALM      29.66F
SALISBURY      LGT RAIN  36  32  85 N18G24    29.62R FOG     WCI  26

$$
PAZ001-021-NYZ056-072-MDZ011-DCZ001-270200-
OTHER NEARBY LOCATIONS

CITY           SKY/WX    TMP DP  RH WIND       PRES   REMARKS
HARRISBURG     LGT SNOW  24  20  84 NE5       29.79F FOG     WCI  18
STATE COLLEGE  LGT SNOW  21  19  93 NE6       29.79S FOG     WCI  14
WILLIAMSPORT   LGT SNOW  24  20  84 W3        29.84S FOG
BINGHAMTON     LGT SNOW  16  13  88 NE7       29.80F FOG     WCI   6
NEW YORK CITY  LGT SNOW  27  21  78 NE12G29   29.81F WCI  17
BALTIMORE      FLURRIES  29  24  82 NE10      29.73S WCI  20
WASHINGTON DC  FLURRIES  33  27  78 N13       29.75R WCI  24

$$


USA.gov is the U.S. government's official web portal to all federal, state and local government web resources and services.